Wind_Speed
14 14 14 14 14 16 17 18 19 19 18 19 19 19 19 18 18 17 18 20 21 23 24 25 27 28 29 28 28 27 26 26 26 25 24 23 22 21 21 20 19 18 17 17 17 17 17 17 17 17 17 18 19 20 20 19 19 20 21 21 21 21 21 21 21 21 22 23 24 25 25 26 27 27 27 27 27 27 27 28 29 29 29 30 30
15 15 15 15 15 16 17 18 19 20 19 19 19 19 19 19 19 20 21 23 24 24 25 27 27 28 28 28 27 26 25 25 24 24 23 22 21 20 19 19 18 17 17 17 17 17 17 17 17 17 17 18 19 20 19 19 19 20 21 22 21 20 20 20 20 21 22 23 24 25 26 26 27 27 27 27 27 27 28 28 29 29 30 30 30
15 15 15 16 16 17 18 18 19 20 21 20 20 20 20 22 23 23 24 25 25 25 26 26 27 27 27 26 25 24 24 23 23 22 21 20 20 19 18 18 18 17 16 17 17 17 17 17 17 17 18 18 19 19 19 19 20 21 21 21 20 19 19 19 20 21 23 23 24 25 26 26 27 27 27 28 28 28 28 29 30 30 30 31 31
15 14 15 16 17 17 18 19 20 20 21 22 23 23 23 25 26 26 26 26 25 25 25 25 25 26 25 24 23 23 22 22 21 20 19 18 18 18 18 17 17 16 16 17 17 18 17 17 17 17 18 19 19 19 19 19 20 20 21 20 19 18 17 19 20 22 22 23 24 24 25 26 26 26 27 27 28 28 28 29 30 30 31 31 31
15 15 15 16 17 17 19 19 20 20 22 23 24 25 25 26 26 26 25 25 25 24 24 23 23 24 23 22 21 21 21 20 19 18 18 17 17 17 17 16 16 15 16 17 17 17 17 17 17 18 18 19 19 18 18 19 20 20 20 19 18 17 17 18 20 21 22 23 23 24 24 25 25 25 26 27 27 28 28 29 30 30 31 31 32
17 16 16 17 17 18 18 19 20 21 22 23 25 25 26 26 25 25 24 24 23 23 22 21 21 22 21 20 19 19 19 19 18 17 17 16 16 16 16 15 15 15 16 16 17 17 17 17 18 18 19 19 18 18 18 19 19 19 19 18 16 16 16 18 20 21 22 22 22 23 23 24 24 24 25 26 27 28 28 29 30 30 31 32 32
18 18 17 17 17 18 18 19 20 20 21 22 23 24 25 25 24 23 23 22 22 22 21 20 20 20 20 18 17 18 18 18 17 16 16 16 16 15 15 15 14 14 15 15 16 16 17 17 18 18 19 18 18 18 18 18 18 18 17 16 15 15 16 18 19 20 21 21 21 22 22 23 23 23 24 26 27 27 28 29 30 30 31 32 33
19 19 18 18 18 18 18 19 19 20 20 21 22 23 23 23 22 21 21 21 21 20 19 19 18 18 18 17 16 17 17 17 16 15 15 15 15 14 14 14 14 14 14 15 15 16 16 17 18 19 19 18 18 17 17 17 17 16 16 15 14 14 16 17 19 19 20 20 20 21 21 21 22 23 24 25 26 27 28 29 30 31 31 32 33
19 19 19 18 18 18 18 18 19 19 19 19 20 21 21 20 19 19 19 19 19 18 18 17 16 16 15 16 16 16 16 15 15 14 14 14 14 13 13 13 13 14 14 14 15 15 16 17 18 18 18 18 18 17 16 15 15 15 14 14 13 14 15 17 18 18 19 19 19 19 20 20 21 22 24 25 26 27 28 29 30 31 31 32 33
19 18 18 19 18 17 17 17 17 17 18 18 19 20 19 18 17 17 17 17 17 16 16 15 15 14 14 14 15 15 14 13 13 13 13 13 13 12 12 12 13 14 15 15 14 15 16 17 17 18 18 18 17 16 15 14 14 14 13 12 12 13 14 16 16 17 17 17 17 18 19 20 21 22 23 25 26 27 28 29 30 31 31 32 32
18 17 17 18 18 17 17 18 17 17 16 17 18 18 18 17 16 16 16 15 15 14 14 13 13 13 13 13 13 13 12 11 11 12 12 13 13 11 10 12 13 15 16 15 14 14 16 16 17 17 17 17 16 15 14 13 13 13 12 11 11 12 13 14 14 15 15 16 16 17 18 19 20 22 23 24 26 26 28 29 30 30 31 31 32
17 17 17 17 18 17 17 17 17 16 16 16 16 16 16 16 16 15 15 15 14 14 13 12 11 11 12 11 11 11 10 10 10 10 10 11 13 11 10 12 13 15 15 15 14 14 15 16 16 17 16 16 15 14 13 12 12 11 10 10 10 10 11 12 13 13 14 15 15 16 17 19 20 21 23 24 25 27 28 29 30 30 30 31 32
15 15 16 16 17 17 17 16 16 16 15 14 14 14 15 15 14 14 14 14 13 13 12 11 10 10 10 10 10 10 10 9 9 8 8 10 12 12 10 11 13 14 14 14 14 14 14 14 15 16 16 15 14 13 13 12 11 10 9 8 8 9 10 11 12 13 13 14 15 15 17 18 19 20 22 24 25 27 28 28 29 30 30 31 32
14 14 15 15 16 16 17 16 15 15 15 13 13 13 14 14 14 13 13 13 12 11 10 9 9 8 9 9 8 9 9 9 9 9 8 9 11 12 11 11 12 13 13 13 14 14 14 13 14 14 15 14 13 13 12 11 11 10 8 7 7 8 10 11 11 12 13 14 14 15 16 17 18 19 21 23 25 26 27 28 29 30 31 31 32
12 13 13 14 15 15 15 15 15 15 15 14 12 12 13 13 13 12 12 12 11 11 9 7 7 7 8 8 8 7 7 9 9 9 8 8 9 10 10 10 11 12 12 12 13 14 13 13 13 13 13 12 12 12 12 11 10 9 7 7 7 8 9 10 11 11 12 13 14 15 16 17 18 19 20 22 24 26 27 28 29 30 31 31 31
11 12 12 13 13 13 13 13 14 14 14 14 13 12 12 12 12 12 12 12 11 11 9 7 6 6 7 7 8 7 6 7 10 9 8 7 7 7 8 9 9 10 11 12 12 12 12 12 12 12 12 11 10 10 11 11 10 8 7 6 7 8 9 10 10 11 12 13 14 15 16 17 18 18 19 21 23 25 25 27 28 29 30 30 31
11 11 11 11 11 11 11 11 12 13 13 13 12 12 12 12 11 11 11 11 10 11 11 9 8 7 6 6 7 7 7 7 9 9 7 6 6 6 5 7 8 8 9 10 12 11 11 11 12 11 10 9 9 8 9 10 9 7 6 6 6 8 9 9 10 10 11 12 13 15 16 17 18 18 19 21 22 23 24 25 26 28 29 30 30
10 10 10 10 10 10 10 10 10 10 11 11 11 11 12 11 11 11 10 10 10 10 10 11 10 9 7 7 7 7 7 8 8 9 7 6 5 5 4 5 6 7 8 8 10 10 9 10 11 10 9 8 8 7 7 9 9 6 5 5 6 7 8 8 9 9 10 11 12 14 16 17 18 19 19 20 20 21 22 23 25 27 28 29 30
11 11 11 10 10 9 9 9 9 9 9 9 10 10 10 10 10 10 10 9 9 9 9 10 10 10 9 8 8 7 7 8 8 8 8 6 4 3 3 4 5 6 7 8 9 9 9 9 9 9 8 7 7 6 6 7 7 5 4 4 5 7 7 8 8 9 10 10 11 12 15 17 18 18 19 19 19 19 20 22 24 26 27 28 29
11 11 11 11 10 10 9 9 9 8 8 9 9 10 10 9 9 9 9 8 8 8 8 9 10 10 9 8 8 8 8 8 8 9 9 7 5 4 3 4 4 5 6 7 7 8 7 6 7 8 7 5 6 6 5 5 6 5 3 4 5 6 6 7 8 9 9 10 10 11 13 15 17 17 18 18 18 18 19 20 22 24 25 26 28
11 11 11 10 10 10 9 9 9 9 9 9 9 9 9 8 8 8 8 7 8 8 8 8 9 9 8 8 8 8 8 8 8 9 9 8 6 4 3 2 2 3 5 5 6 7 5 4 6 6 5 4 5 5 4 4 4 4 3 3 4 5 5 6 7 8 9 10 11 11 12 13 14 16 17 18 18 18 18 19 21 22 24 25 26
10 10 10 9 9 9 9 9 9 9 10 10 9 9 9 8 8 7 7 6 6 7 7 7 8 8 8 7 8 8 7 7 8 8 9 9 8 7 5 2 1 1 2 3 4 5 3 3 4 5 4 4 5 5 4 3 3 2 2 3 4 5 5 6 8 9 10 11 11 12 12 12 13 14 15 16 17 18 18 19 20 21 23 24 25
10 10 9 8 8 8 9 9 9 9 10 10 9 9 8 8 8 7 7 6 6 6 6 6 7 8 8 7 7 8 7 6 7 8 8 7 8 8 7 6 3 1 1 2 2 2 2 2 3 3 3 4 4 4 3 2 2 2 2 3 4 5 6 7 8 10 11 11 12 13 13 13 14 14 15 16 17 17 18 19 20 21 22 23 24
9 9 8 8 7 7 8 8 8 9 9 9 9 9 9 8 8 7 6 7 6 6 6 6 6 6 7 7 7 7 8 7 6 6 7 6 6 6 7 7 6 4 2 1 0 1 1 2 2 2 3 3 3 2 1 2 2 2 3 4 5 6 7 7 8 10 11 12 13 13 14 14 14 15 16 17 17 17 18 18 20 21 22 22 22
9 9 8 8 7 7 7 7 7 8 8 8 8 8 8 8 8 7 6 6 7 6 6 6 6 5 5 6 6 6 7 7 7 6 6 6 6 6 6 6 6 6 4 3 2 2 2 2 3 3 3 2 2 2 1 2 2 3 4 5 6 7 8 9 10 11 12 13 13 14 14 14 14 15 16 17 17 17 18 18 19 20 21 21 20
9 9 8 8 8 7 7 6 7 7 7 7 7 7 8 8 8 7 6 6 6 7 7 6 6 6 5 5 5 5 5 6 7 7 7 6 6 6 6 5 5 5 5 5 4 3 2 2 3 3 3 3 2 2 2 2 2 3 4 6 7 8 9 9 10 12 13 14 15 15 15 15 15 15 16 17 17 17 18 18 19 20 20 20 19
10 9 8 8 8 8 7 7 7 7 7 7 7 7 7 7 7 7 6 6 6 6 7 7 7 6 6 5 5 6 6 5 5 6 6 6 6 6 7 6 5 5 4 4 4 3 2 2 3 3 3 3 2 2 2 2 2 3 5 6 7 8 9 10 11 13 14 16 16 16 16 16 16 16 17 18 18 18 19 19 19 18 18 18 17
11 10 9 9 9 9 9 8 7 7 7 7 7 7 6 6 6 6 6 6 6 6 7 7 6 6 6 6 5 6 6 7 6 5 5 5 6 6 6 6 6 5 5 4 4 3 3 4 4 3 3 3 2 2 3 3 4 5 5 6 7 9 10 11 13 14 15 16 17 17 17 17 18 18 18 18 19 19 19 19 19 18 17 16 16
12 11 10 10 10 9 10 9 8 7 7 7 7 7 7 6 6 6 6 6 6 6 6 7 6 6 6 6 5 5 6 7 7 7 6 6 6 6 6 6 6 6 5 5 4 3 4 5 5 4 4 3 3 4 5 6 7 8 9 10 10 12 13 13 14 15 15 16 16 17 18 18 18 18 18 18 18 18 18 18 18 17 15 15 15
13 12 12 11 11 10 11 10 9 8 7 7 7 7 7 7 7 6 6 6 6 6 6 6 7 6 7 7 6 5 6 6 7 6 6 6 6 6 7 7 7 6 6 5 4 4 5 5 5 4 5 4 5 6 7 8 9 11 12 13 14 14 15 15 16 16 16 16 15 15 16 17 17 18 18 18 17 17 17 17 17 16 15 14 15
14 13 13 12 12 12 11 11 10 9 8 8 8 7 7 7 7 6 6 6 6 6 6 6 7 7 7 8 8 7 6 7 6 6 7 7 7 7 7 8 7 7 7 6 5 5 5 5 4 4 5 5 6 8 10 11 12 12 13 13 14 14 15 16 16 16 16 15 14 14 14 14 15 16 17 17 17 17 17 17 17 16 15 14 15
15 14 14 13 13 13 13 12 11 11 10 9 9 9 8 7 7 6 6 6 6 6 6 6 6 7 8 8 8 8 8 7 7 7 7 7 8 8 8 8 8 7 7 7 7 7 7 6 6 7 7 7 9 11 12 12 12 12 12 11 12 13 13 15 16 16 16 15 14 14 13 13 14 15 16 17 17 17 17 17 17 17 16 15 15
16 16 15 14 13 13 14 13 12 11 11 11 11 10 9 8 8 7 6 6 6 6 6 6 6 7 8 8 8 9 9 9 8 7 7 7 8 8 8 8 8 8 8 8 8 8 8 9 10 10 10 10 11 12 13 12 11 11 11 11 11 12 12 13 14 15 15 14 14 15 15 15 14 15 16 16 16 16 16 16 17 17 16 15 15
17 17 16 15 14 14 14 14 13 12 12 12 12 12 11 10 10 9 8 7 7 6 6 6 7 7 7 8 8 9 9 10 10 8 7 8 8 8 8 8 8 8 9 9 9 9 10 10 11 12 11 11 11 11 11 11 10 11 12 13 13 13 13 13 14 15 15 15 16 17 17 17 17 17 17 16 15 15 15 15 15 16 15 15 15
17 17 17 17 16 15 14 14 14 13 13 13 13 13 13 13 12 11 10 9 9 8 8 8 7 7 7 8 8 9 9 10 11 10 10 9 9 8 9 8 8 8 9 9 9 9 9 10 10 10 10 10 10 10 10 11 12 12 13 14 14 15 15 15 16 16 16 16 17 17 18 18 18 18 17 16 15 14 14 14 14 15 15 14 14
16 17 17 17 17 16 15 15 15 14 14 14 14 14 14 15 14 13 12 11 11 11 10 10 9 9 8 8 8 9 9 10 11 12 12 12 11 11 10 10 10 10 10 9 9 9 9 10 9 9 10 10 11 12 12 13 14 15 15 15 15 15 15 16 16 16 16 16 16 16 16 16 16 16 16 16 15 14 14 13 13 13 14 14 13
16 16 16 16 17 17 16 16 15 15 14 14 14 14 14 15 15 15 14 13 13 12 12 12 11 10 10 9 9 9 10 10 11 12 13 13 13 13 13 12 12 12 12 11 11 10 10 11 11 11 12 13 13 14 14 15 16 16 16 16 15 14 14 14 14 14 14 14 14 14 14 14 15 15 15 15 15 15 14 13 13 12 13 13 13
15 15 15 16 16 16 16 16 16 15 15 14 13 13 14 14 15 16 16 16 15 14 14 13 13 12 12 12 11 11 11 11 12 12 12 13 14 14 14 14 15 15 15 14 14 14 13 13 13 14 14 15 16 16 15 15 15 14 14 13 13 12 12 12 12 13 13 13 13 13 14 14 14 15 15 16 17 16 15 14 13 12 12 12 13
17 15 15 15 15 16 16 16 16 16 15 15 14 14 14 14 15 16 17 17 17 16 15 15 14 14 14 14 13 13 13 13 13 12 12 13 13 14 14 15 15 16 16 16 16 16 15 15 14 14 14 14 15 14 13 12 11 10 10 10 11 11 11 12 13 13 14 14 15 15 15 15 15 16 17 17 18 19 17 15 14 12 11 12 12
20 19 17 16 15 16 16 17 17 17 17 16 16 15 15 15 16 16 17 17 18 17 17 16 16 15 15 15 15 15 15 15 14 14 13 14 14 14 14 14 15 15 15 15 15 15 15 14 13 13 12 12 12 11 9 8 8 8 8 10 11 12 12 14 14 14 14 15 16 16 16 16 17 17 18 19 19 21 20 19 17 14 12 12 12
22 21 20 18 17 16 17 18 18 19 19 19 19 18 17 17 17 17 17 17 18 18 17 17 17 17 17 17 17 17 16 16 16 16 16 15 15 15 15 15 15 15 15 15 15 14 13 13 12 11 11 10 10 9 8 7 7 8 8 10 12 13 14 15 17 17 15 15 16 18 17 17 18 19 20 20 21 23 23 22 20 19 16 13 12
23 22 22 21 20 19 18 18 19 20 20 21 21 20 20 19 18 18 17 18 18 18 18 18 19 19 18 18 18 18 18 18 18 18 17 17 17 17 17 17 17 16 16 15 15 14 13 13 12 11 11 11 11 10 9 9 9 9 10 10 11 13 13 15 18 21 20 17 17 19 19 18 18 20 22 22 22 24 25 24 22 21 19 17 14
26 24 23 22 22 21 20 20 19 19 20 22 22 21 21 20 19 19 19 19 19 19 19 20 20 20 20 20 20 19 19 19 19 19 19 19 19 19 19 19 19 18 17 17 17 16 15 14 14 13 13 13 13 12 12 12 12 11 12 12 12 13 14 15 18 22 25 22 19 20 21 20 19 20 23 23 22 24 26 25 23 22 21 19 17
28 27 26 24 24 23 21 21 20 20 21 22 23 23 22 22 21 21 20 20 20 20 21 21 21 22 21 21 21 21 21 21 21 21 21 21 21 21 21 21 20 20 19 19 19 18 17 17 16 16 16 16 15 15 14 14 14 13 14 15 15 16 16 17 19 23 26 26 22 21 23 22 20 20 23 23 21 23 25 24 23 21 21 20 19
30 28 27 26 25 24 22 21 21 22 22 24 25 25 25 25 24 23 22 22 22 22 23 23 24 24 23 23 23 23 24 24 24 23 23 23 23 23 23 22 22 22 21 21 20 20 19 19 18 18 19 18 17 17 18 17 16 16 16 17 18 19 19 20 22 24 26 27 24 20 22 23 20 19 22 22 21 21 24 24 23 22 21 20 20
30 28 28 27 26 25 23 22 22 22 24 25 27 28 28 29 28 26 25 24 24 24 24 25 25 26 26 25 25 26 26 27 26 26 26 26 26 25 25 24 24 24 23 23 22 22 22 21 20 20 21 20 19 20 20 19 18 18 19 19 21 21 22 23 23 24 26 26 23 19 19 21 20 18 20 21 20 21 24 24 24 23 21 20 20
29 29 28 28 26 25 24 23 23 23 25 27 27 28 29 30 29 28 26 25 25 25 25 26 27 27 27 27 27 27 28 28 28 29 29 28 28 27 26 26 26 25 25 24 24 24 24 23 22 22 23 23 22 22 22 22 20 20 20 21 22 23 24 24 24 25 26 25 23 19 17 19 20 18 20 21 21 22 23 23 23 22 21 20 19
28 28 28 28 27 26 25 24 24 26 28 29 29 28 28 28 28 27 25 25 24 25 26 26 27 27 28 27 27 28 28 29 29 30 30 30 29 28 28 27 27 27 26 26 27 27 26 25 25 24 24 24 24 23 23 23 22 22 22 21 23 25 26 24 24 25 25 24 23 21 17 17 19 18 19 22 22 22 23 22 21 21 21 20 19
26 27 29 29 29 28 27 27 27 27 29 31 32 31 30 29 28 27 27 26 25 25 26 27 28 28 28 27 27 27 27 28 29 30 31 31 30 29 29 29 28 27 27 28 29 29 28 28 27 26 25 25 25 24 24 23 23 24 23 21 24 26 25 23 23 24 24 24 25 24 21 19 20 19 19 21 22 22 22 22 21 21 21 20 19
22 25 28 30 31 30 29 28 29 30 30 31 32 33 32 32 32 31 30 28 27 27 27 28 28 29 29 29 29 28 27 28 29 30 31 31 30 29 30 30 29 28 27 29 31 30 29 29 27 26 26 25 25 25 24 24 25 25 24 22 25 26 24 22 21 21 21 23 26 26 24 22 23 21 20 20 21 22 22 21 20 21 21 21 20
18 20 23 25 28 30 31 30 30 32 32 32 32 31 31 32 34 34 33 32 31 30 31 31 31 31 31 31 31 30 30 30 31 32 32 32 30 29 29 29 28 27 29 32 33 30 29 28 28 27 26 26 26 26 26 26 27 27 26 24 25 25 23 21 21 20 20 23 27 27 25 24 24 23 22 20 20 22 21 20 20 21 21 22 21
Wind_Direction
102 99 95 92 88 85 83 82 81 84 90 97 102 105 106 107 107 108 108 109 111 112 114 114 112 110 109 109 108 108 108 108 107 108 108 108 106 105 104 102 99 94 89 85 82 82 83 87 90 90 87 87 89 90 88 85 84 84 83 81 79 79 78 78 78 76 72 68 64 61 58 56 54 51 49 46 43 40 38 36 35 34 33 33 32
100 98 95 92 89 86 86 87 88 88 92 96 102 105 107 108 108 108 109 110 112 114 114 113 112 110 109 109 109 109 108 107 107 107 107 107 106 104 102 99 94 90 86 83 83 85 88 91 91 89 87 89 92 90 87 85 85 84 83 81 80 80 80 80 78 74 69 65 62 59 57 54 52 49 47 44 41 39 37 36 36 35 35 35 33
99 96 94 93 92 91 91 92 93 94 97 101 105 109 110 111 110 110 111 112 113 114 113 112 111 110 109 110 110 109 107 106 106 105 105 105 104 102 98 94 90 87 85 84 85 88 91 93 91 88 89 92 92 90 87 86 85 84 83 82 82 82 82 81 77 72 67 63 61 58 55 53 50 47 45 42 40 38 37 37 37 37 37 36 34
99 94 93 95 96 96 96 96 97 99 102 105 107 109 110 110 111 112 112 113 114 114 113 113 112 111 111 111 109 106 105 105 105 104 103 102 101 98 93 90 89 87 86 85 88 92 94 93 90 89 91 93 92 89 87 86 85 85 85 85 85 85 84 80 75 70 66 63 60 57 55 53 49 46 45 43 39 38 38 37 37 37 37 36 33
102 97 94 96 98 99 100 100 101 103 105 107 109 109 109 109 110 111 113 114 115 115 115 114 112 110 110 108 106 105 105 104 103 103 101 99 97 94 92 90 89 88 87 88 92 94 96 94 91 90 92 93 91 88 86 85 86 86 87 88 87 86 83 78 73 69 66 62 59 57 55 52 49 46 45 43 40 39 38 38 38 36 36 34 32
105 101 97 97 99 101 103 104 104 105 107 108 110 110 110 110 112 114 116 117 116 116 116 114 111 109 108 108 107 106 105 104 103 102 101 98 96 94 93 93 91 89 89 91 95 98 97 95 92 92 93 93 90 88 86 86 87 88 90 90 89 86 81 76 71 67 64 61 58 56 54 52 49 45 44 43 41 39 38 38 37 35 34 32 30
105 104 101 100 100 102 104 107 108 107 107 108 110 111 112 114 117 119 119 118 117 116 115 114 111 109 111 112 110 107 106 105 104 102 101 99 98 97 96 96 93 91 91 95 99 101 99 95 93 93 94 92 90 87 86 87 89 90 91 91 90 86 80 75 70 66 63 60 58 56 53 51 47 44 43 42 40 39 38 36 36 34 32 30 28
103 103 103 102 101 102 104 108 110 110 110 110 111 112 113 116 119 121 120 118 117 116 114 112 111 112 114 114 111 109 109 108 106 103 101 99 100 100 99 97 95 93 94 99 102 102 99 96 95 95 94 92 90 87 86 88 90 91 91 92 90 85 79 74 69 66 63 60 57 55 52 49 45 41 40 39 38 37 36 35 33 31 30 28 26
101 102 104 103 101 101 102 105 108 110 111 112 113 114 114 115 116 117 117 117 116 114 111 109 110 112 113 112 110 110 110 109 107 105 102 100 101 103 101 97 96 97 98 100 102 101 99 97 97 96 95 93 90 88 87 89 91 91 91 92 89 84 78 74 69 66 63 59 56 53 50 47 43 40 38 37 36 34 34 32 30 28 27 26 24
100 101 102 103 103 102 102 102 102 105 109 111 111 112 114 116 115 113 113 114 114 111 109 107 108 108 107 108 111 113 114 113 110 109 107 104 103 102 100 98 98 100 102 102 101 99 98 97 98 98 97 94 92 90 90 90 91 91 91 90 86 82 78 74 70 67 63 59 55 51 48 45 42 38 36 35 34 32 31 29 28 27 25 24 23
100 101 101 103 104 105 105 104 103 104 106 106 106 108 112 115 115 114 112 112 110 108 106 106 106 105 105 107 111 115 118 115 111 110 110 107 104 102 100 100 102 104 104 103 100 98 98 98 99 100 98 96 95 93 92 91 90 90 89 87 84 80 76 74 71 67 63 58 53 49 45 43 40 38 36 34 33 31 30 27 25 25 24 23 22
100 100 100 100 102 104 105 105 106 106 105 105 106 109 112 112 113 113 111 111 110 108 108 107 105 103 104 106 109 113 114 111 107 103 104 107 107 106 104 104 107 107 106 104 99 96 97 99 102 102 100 98 97 95 93 91 89 87 86 83 80 76 73 70 67 63 60 56 51 47 44 41 39 38 36 34 32 30 28 26 23 22 22 22 21
101 100 99 99 99 101 101 100 102 104 105 107 111 115 115 113 113 111 110 109 109 109 109 108 103 98 98 101 107 112 111 108 103 96 99 107 110 110 111 111 111 110 108 106 101 98 97 99 103 104 103 100 98 95 93 91 88 85 82 78 74 71 67 63 60 57 53 50 46 43 42 40 37 37 36 33 31 28 26 25 22 20 20 20 20
105 105 103 101 99 97 97 98 100 102 105 110 114 117 116 115 116 114 113 111 109 108 107 107 103 97 94 96 101 109 114 111 102 96 101 111 112 112 116 120 118 114 111 106 103 101 99 100 102 103 102 100 99 97 94 91 88 84 78 72 68 65 62 59 54 51 48 44 40 38 37 36 34 34 34 33 30 27 23 22 21 19 18 19 19
107 107 105 104 101 98 98 102 104 105 107 109 111 111 111 113 115 115 115 115 114 111 108 105 104 102 99 97 98 103 112 112 105 101 106 115 114 111 120 126 123 116 112 107 105 105 103 103 103 101 100 99 99 99 97 93 88 83 76 68 63 59 57 54 49 46 43 39 35 32 33 32 29 30 32 31 29 26 21 19 20 18 16 17 17
102 101 102 104 105 105 105 107 107 106 106 105 103 102 104 108 112 114 114 115 117 116 114 109 104 105 103 101 102 105 110 111 109 108 116 126 121 112 119 127 125 117 112 110 107 107 106 106 105 102 100 99 98 99 99 96 89 83 75 65 60 56 52 48 44 41 38 36 32 28 28 28 26 25 28 29 28 25 20 17 18 18 15 14 15
101 102 105 108 113 115 114 112 109 108 106 103 100 99 100 104 108 111 113 116 118 118 118 116 114 112 108 103 107 112 116 116 113 114 122 131 126 119 118 123 122 111 106 107 107 107 108 108 105 102 102 102 99 98 99 98 90 81 74 65 59 54 48 43 38 36 34 32 31 26 24 25 24 22 24 27 27 23 19 16 16 17 14 12 12
112 115 116 118 121 122 120 118 115 113 110 105 100 98 101 104 106 108 112 116 118 118 119 119 118 118 116 111 108 112 119 122 118 116 121 128 128 128 121 115 111 100 95 98 102 105 106 105 104 104 107 105 101 99 97 96 90 80 69 61 59 55 47 41 35 32 30 29 28 25 21 22 23 21 21 23 25 22 18 16 15 15 13 10 10
122 124 125 127 130 132 130 127 123 118 113 108 103 100 101 102 104 108 109 113 116 117 118 117 117 117 117 113 109 109 113 118 118 116 120 123 123 126 117 104 103 100 98 97 100 102 99 100 105 109 109 106 101 96 90 91 90 81 63 49 52 53 49 41 33 27 25 25 26 23 20 19 20 20 18 18 21 21 18 16 15 14 12 9 9
124 126 128 131 136 137 135 132 130 124 119 113 110 108 106 102 103 105 105 108 113 115 115 114 114 115 115 113 110 109 110 115 119 122 125 126 125 126 114 106 111 111 107 106 104 98 93 100 110 110 109 108 101 90 83 86 90 82 59 39 41 44 44 39 29 22 17 18 21 19 17 16 16 16 15 14 15 16 17 16 14 12 10 8 8
122 125 127 131 133 133 133 134 132 128 124 119 118 119 116 111 108 105 104 107 111 114 115 114 114 113 113 110 108 108 112 118 124 130 132 133 132 125 113 117 133 126 119 118 110 103 105 115 115 111 112 111 97 82 70 68 77 75 49 27 29 31 27 24 18 11 9 10 12 11 9 9 10 10 10 9 9 9 10 11 11 10 8 7 8
123 124 126 127 126 127 129 129 127 124 122 121 122 122 121 121 118 114 112 112 113 115 119 121 120 118 116 114 113 114 118 123 129 136 139 136 135 131 125 136 168 136 110 103 102 111 129 123 109 111 114 108 88 71 54 41 50 54 24 359 12 17 9 8 3 358 358 359 358 358 358 357 358 359 359 360 0 0 1 2 3 5 6 6 9
128 126 126 126 125 126 125 126 125 122 121 123 123 123 125 126 124 122 121 120 120 121 126 129 126 126 125 121 118 118 120 124 128 136 141 142 141 143 143 144 147 134 43 49 78 108 123 94 90 97 100 94 80 70 51 28 26 13 344 335 353 359 355 357 352 344 345 347 346 345 345 344 346 347 348 349 350 351 352 353 355 358 1 4 8
135 133 132 129 128 128 129 131 129 123 123 124 124 125 127 129 127 128 128 130 131 130 132 134 129 129 129 126 126 126 126 126 124 126 135 141 142 147 150 147 145 147 139 93 52 304 19 45 46 59 66 66 71 72 40 21 12 339 324 329 340 343 344 346 340 333 337 342 343 342 340 338 337 338 339 341 342 345 347 348 350 353 358 2 7
145 142 140 135 135 136 137 137 131 128 129 127 127 128 130 131 130 133 137 139 140 139 140 140 136 138 138 132 133 134 133 134 134 131 132 137 138 143 153 156 156 160 164 172 208 265 323 5 6 15 29 34 47 55 24 2 343 328 327 327 330 332 335 337 334 332 337 343 345 345 343 340 336 335 335 336 338 341 344 346 348 351 356 0 6
157 154 149 143 143 145 146 145 139 137 135 132 132 131 131 131 131 137 146 149 150 149 151 151 149 151 151 141 139 143 143 142 144 144 143 147 149 149 155 164 175 179 181 188 203 231 277 336 339 343 357 7 17 21 12 351 331 324 323 323 325 329 333 335 334 332 335 338 340 342 343 342 340 337 336 336 337 340 343 346 348 351 355 359 6
171 163 159 154 151 152 155 156 154 149 144 140 137 135 133 133 135 141 149 155 157 156 157 158 155 156 157 153 154 156 155 156 159 156 153 156 159 161 164 169 179 189 201 213 221 232 251 281 298 312 331 339 348 350 338 326 317 313 315 319 322 327 331 332 329 327 329 332 334 336 338 339 340 339 337 338 338 340 343 346 349 353 357 0 7
184 173 167 165 160 158 161 163 163 161 156 149 144 140 138 138 140 145 152 159 163 162 163 161 157 158 160 163 169 170 166 167 171 170 164 163 165 171 175 177 180 188 204 224 235 242 250 259 273 285 298 306 312 311 308 317 326 324 318 316 317 320 323 323 321 322 325 328 331 333 335 336 337 337 337 338 339 341 343 346 351 356 359 2 7
193 185 178 175 172 169 167 170 171 169 165 160 154 151 148 145 145 148 155 161 164 166 168 163 159 161 162 167 178 184 179 176 176 174 173 175 181 186 187 187 190 191 199 217 227 232 240 249 261 273 282 290 295 303 315 328 331 324 320 321 321 321 322 323 325 327 329 332 334 333 335 337 338 337 338 338 340 342 344 347 353 358 1 3 5
199 195 189 185 182 180 177 175 177 178 176 172 170 165 159 156 153 154 159 161 161 169 174 168 166 170 170 172 181 188 186 185 183 177 176 181 189 197 199 200 200 198 199 206 206 210 229 241 248 257 270 283 293 302 313 321 320 316 317 321 323 324 327 330 333 335 338 341 341 338 336 338 339 339 340 342 342 343 345 349 353 358 1 1 1
203 202 199 195 190 187 185 182 180 181 182 182 183 180 174 169 161 160 164 160 158 165 172 175 176 180 183 183 185 186 189 194 192 186 186 188 191 200 206 208 208 205 206 207 204 207 222 233 236 242 259 278 289 296 303 307 309 311 317 321 323 327 331 333 335 339 341 344 344 341 339 338 338 339 341 344 345 346 347 349 352 356 359 359 359
204 205 205 203 199 194 191 187 184 183 184 186 188 187 187 183 174 171 169 161 157 157 163 174 178 183 188 191 194 191 190 196 197 195 198 195 194 200 207 212 212 210 212 215 215 217 224 232 242 251 261 272 280 287 293 300 305 312 320 325 326 329 332 334 335 336 338 340 341 340 339 338 337 338 340 343 344 345 347 348 349 352 356 357 357
203 205 207 208 206 202 196 193 189 186 185 188 191 191 192 190 188 188 182 172 166 159 160 167 170 178 185 190 199 198 193 195 197 198 204 203 201 204 208 212 214 215 217 219 221 224 229 236 247 256 263 268 272 279 287 297 307 314 320 324 325 328 330 331 329 327 329 333 335 335 334 335 336 337 338 339 339 339 341 342 342 345 350 353 352
204 205 207 208 210 210 204 199 195 191 188 190 193 195 196 196 196 197 195 191 186 175 171 171 166 169 173 178 190 196 195 198 198 196 201 205 205 207 211 215 219 221 223 224 226 229 233 238 246 255 262 265 269 275 285 294 303 309 313 317 320 321 322 321 318 316 320 324 326 326 327 329 332 334 334 335 333 331 332 334 334 336 341 347 348
211 209 209 209 211 213 212 208 204 199 195 193 195 197 199 200 201 203 202 201 200 195 191 188 178 171 169 171 181 188 191 197 198 197 200 204 205 207 211 215 219 225 229 231 232 232 236 243 248 253 258 262 269 278 286 294 300 306 310 312 315 316 316 315 312 313 317 320 321 321 322 324 327 329 331 332 332 329 326 327 327 327 332 340 344
219 217 215 214 214 214 215 215 213 209 205 200 198 199 200 201 203 206 207 205 205 206 204 202 196 188 183 183 185 187 190 193 197 200 201 204 207 208 210 212 217 224 229 233 236 235 239 245 252 257 261 265 273 281 288 293 298 302 305 307 309 311 311 312 313 316 319 322 324 324 324 324 325 327 330 333 334 333 331 330 327 322 322 329 339
225 225 223 221 220 220 220 220 219 218 215 211 207 205 204 204 204 207 210 209 208 209 210 209 207 203 200 198 196 197 197 199 200 201 203 207 211 213 215 216 219 225 230 236 240 243 247 250 256 262 269 274 278 282 285 288 291 295 298 301 304 305 308 311 315 318 321 324 327 328 327 328 328 328 329 329 330 332 332 333 334 328 319 319 327
226 228 229 229 228 228 228 228 228 226 224 222 219 216 214 212 210 211 212 213 212 212 212 212 212 212 210 208 207 206 207 209 208 206 207 211 215 218 221 222 224 228 232 236 240 244 249 253 257 262 268 273 277 280 283 286 288 292 296 299 302 306 311 314 316 318 320 323 326 325 325 327 326 324 323 323 324 326 330 332 336 337 329 320 319
217 221 225 228 230 231 232 234 235 235 234 231 228 225 222 220 218 216 216 216 216 215 213 212 212 213 214 215 215 214 215 216 215 214 214 217 220 222 224 227 229 231 234 237 240 243 247 252 256 261 265 269 273 277 281 284 287 292 296 299 303 309 313 314 314 315 317 319 320 320 321 322 321 320 320 320 321 325 331 335 337 336 333 327 321
213 214 215 219 224 228 231 233 234 236 237 237 235 232 228 225 223 221 220 220 220 219 217 215 214 214 215 217 219 219 219 220 220 220 221 222 224 226 227 230 232 234 236 238 241 243 246 250 253 257 260 262 266 271 275 277 282 288 294 298 302 305 308 307 306 306 309 312 314 314 317 319 319 318 318 319 320 322 327 333 336 333 330 324 320
217 217 216 214 215 219 225 229 232 233 234 235 236 235 232 228 226 225 224 224 224 224 222 220 219 218 217 218 220 221 222 222 222 223 223 224 226 228 229 231 233 235 237 239 241 242 244 247 248 249 252 253 256 261 264 266 271 277 283 290 294 298 302 302 301 301 302 305 307 308 311 313 312 312 313 316 317 317 320 325 328 329 329 324 317
220 220 220 219 215 214 217 223 228 232 234 235 235 235 233 232 229 227 227 226 227 226 225 225 224 223 221 220 221 222 222 223 224 225 225 225 227 228 230 231 233 234 235 237 239 239 239 240 241 241 244 248 250 252 256 258 260 265 272 277 282 289 295 298 298 298 298 299 301 302 304 306 307 306 307 310 311 310 313 317 320 321 324 323 318
223 220 221 223 222 219 217 218 222 228 234 236 237 236 235 234 232 230 229 228 228 228 229 228 228 228 226 225 224 224 224 225 226 227 227 227 228 229 229 230 232 232 232 234 235 236 237 237 238 239 241 246 250 251 252 256 257 259 264 268 272 277 282 287 290 292 294 296 298 299 300 302 304 302 301 305 307 305 307 312 315 315 316 317 316
227 221 220 222 225 225 224 222 222 225 230 234 236 237 237 236 234 231 230 228 227 228 229 230 230 231 230 230 230 230 229 229 229 229 229 230 230 231 231 231 231 232 232 233 234 235 236 237 239 241 242 246 250 252 251 253 257 259 261 264 267 269 273 278 281 284 288 293 297 298 297 299 302 300 298 302 304 302 303 307 311 312 311 310 310
231 227 223 222 224 227 229 230 229 229 230 232 234 234 234 233 233 231 231 230 229 229 229 230 231 231 231 231 231 231 232 233 233 233 233 233 233 234 235 234 234 234 234 235 236 236 236 237 240 243 246 247 250 253 255 254 255 258 261 264 266 269 271 273 275 278 283 288 293 295 294 295 298 297 296 300 303 300 300 304 307 309 310 308 308
233 233 230 226 225 227 230 234 236 237 236 235 235 236 236 234 231 229 229 230 230 230 231 232 232 233 233 233 232 232 233 233 234 235 236 236 236 237 238 238 237 237 237 238 239 240 239 239 240 245 249 251 251 254 258 260 259 259 262 265 268 270 271 271 273 276 280 285 291 292 291 292 295 296 296 300 302 299 299 302 305 308 310 309 308
233 233 234 233 232 232 232 233 237 242 243 241 238 238 241 242 240 236 234 234 235 236 236 236 236 237 237 238 237 236 237 237 238 239 239 240 240 240 241 241 242 242 242 243 244 245 245 244 242 243 248 253 254 255 259 262 263 263 264 266 269 270 270 271 274 277 281 287 291 292 290 291 294 298 299 301 302 300 299 302 305 307 309 308 307
236 234 235 237 239 239 236 235 236 240 246 247 244 240 240 244 247 246 243 241 241 243 244 244 244 244 244 245 245 245 245 245 245 246 246 246 247 247 246 245 245 245 246 248 249 250 250 250 249 248 249 254 257 259 261 264 265 265 265 266 268 270 271 273 276 279 284 289 293 294 294 293 294 298 300 300 302 301 300 302 304 305 306 306 306
239 237 236 238 240 241 239 238 240 241 243 247 249 248 246 244 245 246 245 244 243 243 245 248 249 250 250 250 250 251 253 255 256 256 256 256 256 256 257 256 254 253 252 253 256 256 256 255 255 255 256 258 261 263 264 266 266 265 264 263 264 267 270 274 277 282 288 292 294 297 299 297 296 297 297 297 298 298 299 302 304 305 306 306 306
245 244 243 242 240 238 237 239 242 243 244 244 245 248 252 252 250 247 245 244 243 242 242 244 246 248 249 250 250 250 251 254 257 260 262 263 263 263 264 265 266 266 263 261 261 261 263 264 264 264 263 264 265 266 266 266 266 265 263 261 262 266 271 275 279 285 292 292 292 296 299 298 297 296 294 293 294 294 295 299 303 304 305 306 307
249 249 248 246 242 238 238 242 243 243 245 245 243 243 247 252 253 252 249 246 245 244 242 242 242 244 246 249 251 252 252 252 254 256 258 260 261 262 264 266 270 272 270 268 268 268 268 270 270 270 269 269 268 268 268 268 268 268 267 264 264 268 274 280 285 291 294 291 290 294 298 298 295 293 290 290 292 291 291 295 298 300 302 305 307
Height
5939 5939 5938 5938 5938 5938 5938 5937 5936 5936 5935 5936 5936 5937 5938 5938 5939 5940 5940 5941 5941 5942 5943 5944 5944 5944 5944 5944 5945 5946 5946 5946 5946 5947 5947 5948 5948 5949 5949 5949 5949 5949 5949 5949 5948 5948 5948 5948 5948 5948 5947 5947 5946 5946 5946 5945 5945 5944 5944 5944 5943 5943 5943 5943 5942 5941 5941 5940 5939 5938 5937 5936 5934 5933 5932 5931 5930 5928 5927 5925 5924 5922 5920 5918 5916
5941 5941 5940 5940 5940 5939 5939 5939 5939 5938 5938 5938 5938 5939 5940 5940 5941 5942 5942 5943 5944 5945 5946 5947 5947 5946 5946 5947 5948 5948 5948 5948 5948 5949 5949 5949 5950 5950 5950 5950 5950 5950 5950 5950 5950 5950 5950 5950 5949 5949 5949 5948 5948 5948 5947 5947 5947 5946 5946 5945 5945 5945 5945 5945 5944 5943 5942 5942 5940 5939 5938 5937 5936 5935 5934 5932 5931 5930 5928 5927 5925 5923 5921 5919 5917
5942 5942 5942 5942 5941 5941 5941 5941 5941 5941 5940 5940 5940 5941 5942 5942 5943 5944 5945 5946 5947 5948 5949 5949 5949 5948 5949 5950 5950 5950 5950 5950 5950 5951 5951 5951 5951 5952 5952 5952 5952 5952 5951 5951 5951 5951 5951 5951 5951 5951 5950 5950 5950 5949 5949 5949 5948 5948 5947 5947 5947 5947 5947 5947 5946 5945 5944 5943 5942 5941 5940 5939 5938 5937 5935 5934 5933 5931 5930 5928 5926 5924 5922 5920 5918
5943 5944 5944 5944 5944 5943 5943 5943 5943 5944 5943 5943 5943 5944 5944 5945 5945 5946 5947 5948 5949 5950 5951 5951 5951 5951 5951 5952 5952 5952 5951 5952 5952 5952 5953 5953 5953 5953 5953 5953 5953 5953 5953 5952 5952 5952 5952 5952 5952 5952 5952 5952 5951 5951 5951 5951 5950 5950 5949 5949 5949 5949 5949 5948 5948 5947 5946 5945 5944 5943 5942 5941 5940 5939 5937 5936 5934 5933 5931 5929 5927 5925 5923 5921 5919
5945 5945 5945 5946 5946 5946 5945 5945 5946 5946 5946 5946 5946 5946 5947 5947 5947 5948 5949 5950 5951 5952 5952 5953 5953 5953 5953 5954 5953 5953 5953 5953 5954 5954 5954 5955 5954 5954 5954 5954 5954 5954 5954 5954 5954 5954 5954 5954 5953 5953 5953 5953 5953 5953 5953 5952 5952 5951 5951 5951 5951 5951 5950 5950 5949 5948 5948 5947 5946 5944 5943 5942 5941 5940 5939 5937 5936 5934 5932 5930 5928 5926 5924 5922 5920
5947 5947 5947 5947 5947 5948 5948 5947 5948 5948 5949 5949 5949 5949 5949 5949 5950 5951 5952 5953 5953 5954 5954 5955 5955 5954 5955 5955 5955 5955 5955 5955 5955 5956 5956 5956 5956 5955 5955 5955 5955 5955 5955 5955 5955 5955 5955 5955 5955 5955 5955 5955 5955 5955 5954 5954 5953 5953 5952 5952 5952 5952 5952 5951 5951 5950 5949 5948 5947 5946 5945 5944 5943 5942 5941 5939 5937 5936 5934 5932 5930 5928 5926 5923 5921
5949 5948 5949 5949 5949 5950 5950 5950 5950 5950 5951 5951 5951 5951 5951 5952 5953 5954 5954 5955 5955 5955 5956 5956 5956 5956 5956 5957 5957 5956 5956 5956 5957 5957 5957 5957 5957 5956 5956 5956 5956 5956 5956 5956 5956 5956 5956 5956 5956 5956 5956 5956 5956 5956 5956 5955 5955 5954 5954 5954 5954 5954 5954 5953 5952 5951 5950 5949 5949 5948 5947 5946 5945 5943 5942 5940 5939 5937 5935 5933 5931 5929 5927 5925 5922
5950 5950 5951 5951 5951 5951 5952 5953 5953 5953 5953 5953 5953 5954 5954 5954 5955 5956 5956 5956 5957 5957 5957 5958 5958 5958 5958 5958 5958 5957 5957 5958 5958 5958 5958 5958 5957 5957 5957 5957 5957 5957 5958 5958 5958 5958 5957 5957 5958 5958 5958 5958 5958 5958 5957 5957 5957 5956 5956 5956 5956 5955 5955 5954 5954 5953 5952 5951 5950 5949 5948 5947 5946 5945 5943 5941 5940 5938 5937 5935 5933 5931 5929 5926 5924
5952 5952 5952 5953 5953 5953 5954 5955 5955 5955 5955 5956 5955 5956 5956 5957 5957 5958 5958 5958 5959 5959 5959 5959 5959 5960 5959 5959 5958 5958 5959 5959 5959 5959 5959 5959 5958 5958 5958 5958 5958 5958 5959 5959 5959 5959 5959 5959 5959 5959 5959 5959 5959 5959 5959 5959 5958 5958 5958 5957 5957 5957 5956 5956 5955 5954 5953 5952 5952 5951 5950 5948 5947 5946 5944 5942 5941 5939 5938 5936 5934 5932 5930 5928 5925
5953 5953 5954 5954 5954 5955 5956 5956 5956 5957 5957 5958 5957 5957 5958 5958 5959 5959 5960 5960 5960 5960 5960 5961 5961 5961 5960 5960 5959 5960 5960 5960 5960 5960 5960 5960 5960 5960 5960 5960 5960 5959 5960 5960 5961 5961 5960 5960 5960 5961 5961 5961 5960 5960 5960 5960 5960 5959 5959 5959 5959 5958 5958 5957 5956 5955 5955 5954 5953 5952 5951 5950 5948 5947 5945 5944 5942 5940 5939 5937 5935 5933 5931 5929 5927
5954 5955 5956 5956 5956 5957 5957 5957 5958 5958 5959 5959 5959 5958 5959 5960 5960 5961 5961 5961 5962 5962 5962 5962 5963 5962 5962 5962 5961 5961 5962 5962 5961 5961 5961 5961 5961 5961 5961 5961 5961 5961 5961 5961 5962 5962 5962 5962 5962 5962 5962 5962 5962 5962 5961 5961 5961 5961 5961 5960 5960 5960 5959 5958 5957 5956 5956 5955 5954 5953 5952 5951 5950 5948 5947 5945 5943 5942 5940 5938 5936 5935 5933 5931 5928
5956 5956 5957 5957 5957 5957 5958 5958 5959 5959 5960 5960 5960 5960 5961 5961 5961 5962 5962 5962 5963 5963 5964 5964 5964 5964 5963 5963 5963 5963 5963 5963 5963 5963 5963 5962 5962 5962 5963 5963 5962 5962 5962 5963 5963 5963 5963 5963 5963 5963 5963 5963 5963 5963 5963 5963 5963 5963 5962 5962 5961 5961 5960 5959 5958 5958 5957 5956 5955 5954 5953 5952 5951 5949 5948 5946 5945 5943 5941 5940 5938 5936 5934 5932 5930
5957 5958 5958 5958 5958 5958 5958 5958 5959 5960 5960 5961 5961 5962 5962 5962 5962 5962 5962 5963 5963 5964 5965 5965 5965 5965 5965 5965 5965 5965 5965 5964 5965 5965 5964 5964 5963 5963 5964 5964 5963 5963 5964 5964 5964 5964 5965 5965 5965 5964 5964 5964 5964 5964 5964 5964 5964 5964 5964 5964 5963 5962 5961 5961 5960 5959 5958 5957 5956 5956 5955 5953 5952 5951 5949 5948 5946 5944 5943 5941 5939 5938 5936 5933 5931
5958 5959 5959 5959 5959 5959 5959 5959 5960 5961 5961 5962 5963 5963 5962 5962 5962 5963 5963 5963 5964 5965 5966 5966 5966 5966 5966 5966 5966 5966 5966 5966 5966 5966 5966 5965 5965 5964 5965 5965 5965 5964 5965 5965 5965 5965 5966 5966 5966 5966 5966 5966 5966 5966 5965 5965 5965 5965 5965 5965 5964 5964 5963 5962 5961 5960 5960 5959 5958 5957 5956 5955 5953 5952 5950 5949 5947 5946 5944 5942 5941 5939 5937 5935 5932
5959 5959 5959 5959 5959 5959 5960 5961 5962 5962 5963 5963 5963 5963 5962 5962 5963 5963 5963 5964 5964 5965 5966 5967 5967 5967 5967 5967 5967 5967 5967 5967 5967 5967 5967 5967 5966 5966 5966 5966 5966 5965 5966 5966 5966 5966 5967 5967 5967 5967 5967 5967 5967 5967 5967 5967 5967 5967 5967 5966 5966 5965 5964 5963 5963 5962 5961 5960 5959 5958 5957 5956 5955 5953 5951 5950 5948 5947 5945 5944 5942 5940 5938 5936 5934
5958 5958 5959 5959 5959 5960 5961 5962 5963 5963 5963 5964 5964 5963 5962 5963 5963 5963 5964 5964 5965 5965 5966 5967 5968 5968 5968 5968 5967 5967 5968 5968 5967 5967 5968 5968 5968 5968 5967 5967 5967 5967 5966 5967 5967 5967 5968 5968 5968 5968 5968 5968 5969 5968 5968 5968 5968 5968 5968 5968 5967 5966 5965 5965 5964 5963 5962 5961 5960 5959 5958 5957 5956 5954 5952 5951 5949 5948 5947 5945 5943 5941 5939 5937 5935
5958 5958 5959 5959 5960 5961 5962 5963 5963 5963 5963 5964 5964 5964 5963 5963 5964 5964 5964 5964 5965 5965 5966 5967 5968 5968 5968 5968 5968 5968 5968 5968 5968 5968 5969 5969 5969 5969 5969 5969 5968 5968 5968 5968 5968 5968 5969 5969 5969 5969 5969 5970 5970 5969 5969 5969 5969 5969 5969 5969 5968 5967 5966 5966 5965 5964 5963 5962 5961 5960 5959 5958 5957 5955 5953 5952 5950 5949 5948 5946 5944 5942 5940 5938 5936
5958 5959 5960 5960 5961 5962 5962 5963 5963 5963 5963 5964 5964 5964 5964 5964 5964 5964 5964 5965 5965 5965 5965 5966 5967 5968 5968 5969 5969 5969 5969 5969 5969 5969 5970 5971 5971 5971 5971 5970 5970 5970 5970 5970 5969 5969 5970 5970 5970 5970 5970 5971 5970 5971 5970 5970 5969 5970 5970 5970 5969 5968 5967 5967 5966 5965 5964 5963 5962 5961 5960 5959 5958 5956 5955 5953 5952 5950 5949 5948 5946 5944 5942 5939 5937
5959 5960 5961 5961 5961 5962 5962 5962 5963 5963 5963 5963 5964 5964 5964 5964 5965 5965 5965 5965 5965 5965 5965 5966 5966 5967 5968 5968 5969 5969 5969 5969 5970 5970 5971 5972 5972 5973 5972 5972 5972 5971 5971 5971 5970 5970 5971 5971 5971 5971 5971 5971 5971 5971 5971 5970 5970 5971 5971 5970 5970 5969 5968 5968 5967 5966 5965 5964 5963 5962 5961 5960 5958 5957 5956 5954 5953 5951 5950 5948 5947 5945 5943 5940 5938
5960 5961 5961 5961 5962 5962 5962 5962 5962 5963 5963 5963 5964 5964 5964 5965 5965 5965 5965 5965 5965 5966 5966 5966 5966 5967 5968 5968 5968 5969 5969 5970 5970 5971 5972 5973 5974 5974 5973 5973 5973 5972 5972 5971 5971 5971 5971 5972 5972 5972 5972 5972 5972 5972 5972 5971 5971 5971 5971 5971 5971 5970 5969 5968 5968 5967 5966 5965 5964 5963 5962 5961 5959 5958 5957 5955 5954 5952 5951 5949 5947 5945 5943 5941 5939
5960 5961 5961 5961 5961 5962 5962 5962 5962 5963 5963 5963 5963 5964 5964 5965 5965 5965 5965 5965 5966 5966 5966 5966 5967 5967 5968 5968 5969 5969 5970 5971 5971 5972 5973 5973 5974 5974 5974 5974 5974 5974 5973 5972 5972 5972 5972 5973 5973 5973 5973 5973 5973 5972 5972 5972 5972 5972 5972 5972 5971 5970 5970 5969 5968 5967 5966 5965 5964 5963 5962 5961 5960 5959 5958 5956 5955 5953 5952 5950 5948 5946 5944 5942 5939
5960 5960 5961 5961 5961 5961 5962 5962 5962 5963 5963 5963 5963 5964 5964 5964 5964 5965 5965 5966 5966 5966 5967 5967 5967 5968 5968 5969 5969 5970 5970 5971 5972 5972 5973 5974 5974 5974 5974 5975 5975 5975 5974 5973 5972 5972 5973 5974 5974 5974 5973 5973 5973 5973 5973 5973 5973 5972 5972 5972 5971 5971 5970 5969 5968 5968 5967 5966 5965 5964 5963 5962 5960 5959 5958 5957 5955 5954 5952 5951 5949 5947 5945 5942 5940
5959 5960 5960 5961 5961 5961 5962 5962 5962 5962 5963 5963 5963 5964 5964 5964 5964 5965 5965 5966 5966 5967 5967 5967 5968 5968 5969 5969 5970 5971 5971 5972 5972 5973 5974 5974 5974 5974 5974 5975 5975 5975 5975 5974 5974 5974 5974 5974 5974 5974 5974 5974 5973 5973 5973 5973 5973 5973 5973 5972 5972 5971 5970 5969 5969 5968 5967 5966 5965 5964 5963 5962 5960 5959 5958 5957 5955 5954 5953 5951 5949 5947 5945 5943 5941
5959 5960 5960 5961 5961 5961 5962 5962 5962 5962 5962 5963 5963 5964 5964 5964 5965 5965 5966 5966 5966 5967 5967 5968 5968 5969 5969 5970 5971 5971 5972 5973 5974 5974 5975 5975 5975 5975 5975 5975 5975 5975 5975 5975 5975 5975 5975 5974 5974 5974 5974 5974 5974 5974 5974 5974 5973 5973 5973 5972 5972 5971 5970 5970 5969 5968 5967 5966 5965 5964 5963 5962 5960 5959 5958 5956 5955 5954 5952 5951 5950 5948 5946 5944 5941
5959 5960 5960 5961 5961 5962 5962 5962 5962 5962 5963 5963 5963 5964 5964 5964 5965 5965 5966 5966 5967 5967 5968 5968 5969 5969 5970 5970 5971 5972 5972 5973 5974 5975 5975 5975 5975 5975 5975 5975 5975 5975 5975 5975 5975 5975 5975 5975 5975 5975 5974 5974 5974 5974 5974 5974 5974 5973 5973 5972 5972 5971 5971 5970 5969 5969 5968 5966 5965 5964 5963 5962 5960 5959 5958 5956 5955 5953 5952 5951 5950 5948 5946 5944 5942
5959 5959 5960 5961 5961 5962 5962 5962 5963 5963 5963 5963 5964 5964 5964 5964 5965 5965 5966 5967 5967 5967 5968 5968 5969 5969 5970 5971 5971 5972 5972 5973 5974 5974 5975 5975 5976 5976 5976 5976 5976 5975 5975 5975 5975 5975 5975 5976 5976 5975 5975 5975 5975 5975 5975 5975 5974 5974 5973 5972 5972 5971 5971 5970 5969 5968 5967 5966 5965 5964 5963 5962 5960 5959 5958 5956 5955 5953 5952 5951 5950 5948 5947 5945 5943
5958 5959 5960 5960 5961 5962 5963 5963 5963 5963 5963 5964 5964 5964 5965 5965 5965 5966 5966 5967 5967 5967 5968 5968 5969 5969 5970 5971 5971 5972 5972 5973 5973 5974 5974 5975 5975 5975 5976 5976 5976 5976 5976 5976 5976 5976 5976 5976 5976 5976 5976 5975 5975 5975 5975 5975 5974 5974 5973 5973 5972 5971 5971 5970 5969 5968 5967 5966 5965 5964 5963 5962 5960 5959 5958 5956 5955 5953 5952 5951 5950 5948 5947 5945 5943
5958 5958 5959 5960 5961 5962 5962 5963 5964 5964 5964 5964 5964 5965 5965 5965 5965 5966 5966 5967 5967 5967 5968 5968 5969 5970 5970 5971 5971 5972 5972 5972 5973 5973 5974 5975 5975 5975 5975 5975 5975 5976 5976 5976 5976 5977 5977 5977 5977 5976 5976 5976 5976 5975 5975 5975 5974 5974 5973 5973 5972 5971 5970 5970 5969 5968 5967 5966 5965 5964 5963 5961 5960 5959 5958 5956 5955 5953 5952 5951 5950 5948 5947 5946 5944
5958 5958 5958 5959 5960 5961 5962 5963 5963 5964 5964 5965 5965 5965 5965 5965 5966 5966 5966 5967 5967 5967 5968 5968 5969 5970 5970 5971 5971 5972 5972 5972 5972 5973 5973 5974 5975 5975 5975 5975 5975 5975 5976 5976 5976 5977 5977 5977 5977 5976 5976 5976 5976 5976 5975 5975 5975 5974 5973 5972 5972 5971 5970 5970 5969 5968 5967 5966 5965 5963 5962 5961 5960 5959 5958 5957 5955 5954 5952 5951 5950 5949 5947 5946 5945
5958 5958 5958 5959 5959 5960 5961 5962 5963 5963 5964 5965 5965 5965 5966 5966 5966 5966 5966 5967 5967 5967 5968 5968 5969 5969 5970 5971 5971 5972 5972 5972 5972 5973 5973 5974 5974 5974 5975 5975 5975 5975 5975 5976 5976 5976 5976 5976 5976 5976 5976 5976 5976 5976 5975 5975 5974 5974 5973 5972 5971 5970 5970 5969 5968 5967 5966 5965 5964 5963 5962 5961 5960 5959 5958 5957 5955 5954 5953 5951 5950 5949 5948 5947 5945
5957 5958 5958 5959 5959 5959 5960 5961 5961 5962 5963 5964 5965 5965 5966 5966 5966 5966 5967 5967 5967 5967 5968 5968 5969 5969 5970 5970 5971 5971 5972 5972 5972 5973 5973 5973 5973 5974 5974 5974 5974 5975 5975 5975 5976 5976 5976 5976 5976 5976 5976 5976 5976 5975 5975 5975 5974 5973 5973 5972 5971 5970 5969 5968 5967 5966 5966 5965 5964 5963 5962 5961 5960 5959 5958 5957 5956 5954 5953 5952 5950 5949 5948 5947 5946
5956 5957 5958 5959 5959 5959 5959 5960 5960 5961 5962 5963 5964 5965 5965 5966 5966 5967 5967 5967 5967 5968 5968 5968 5968 5969 5970 5970 5970 5971 5971 5972 5972 5973 5973 5973 5973 5973 5974 5974 5974 5974 5974 5975 5975 5975 5976 5975 5975 5975 5975 5975 5975 5975 5974 5974 5973 5973 5972 5972 5971 5970 5970 5969 5968 5966 5965 5965 5964 5963 5962 5961 5960 5959 5958 5957 5956 5954 5953 5952 5950 5949 5948 5947 5946
5954 5956 5957 5958 5959 5959 5959 5959 5959 5960 5961 5962 5963 5964 5965 5965 5966 5966 5967 5967 5968 5968 5968 5968 5968 5969 5969 5969 5970 5970 5971 5972 5972 5972 5973 5973 5972 5973 5973 5973 5973 5973 5974 5974 5974 5975 5975 5975 5975 5975 5974 5974 5974 5974 5973 5973 5972 5972 5972 5971 5971 5970 5970 5969 5968 5967 5966 5964 5964 5963 5962 5961 5960 5959 5958 5957 5956 5954 5953 5952 5950 5949 5948 5947 5946
5953 5954 5955 5957 5958 5959 5959 5959 5959 5959 5960 5961 5962 5963 5964 5964 5965 5966 5966 5967 5968 5968 5968 5968 5968 5968 5968 5969 5969 5970 5970 5971 5971 5971 5972 5972 5972 5972 5972 5972 5972 5972 5973 5973 5973 5974 5974 5974 5974 5973 5973 5973 5973 5972 5972 5972 5972 5972 5971 5971 5970 5970 5969 5969 5968 5967 5965 5964 5963 5962 5961 5961 5960 5959 5957 5956 5955 5954 5953 5952 5950 5949 5948 5947 5946
5952 5952 5954 5955 5957 5958 5959 5959 5960 5960 5960 5960 5960 5961 5962 5963 5964 5964 5965 5966 5967 5967 5968 5968 5968 5968 5968 5968 5968 5969 5969 5969 5970 5970 5970 5971 5971 5971 5971 5971 5971 5972 5972 5972 5972 5973 5973 5973 5973 5973 5972 5972 5972 5972 5971 5971 5971 5971 5970 5970 5969 5969 5968 5968 5967 5966 5965 5964 5963 5962 5961 5960 5959 5958 5957 5956 5955 5953 5952 5951 5950 5949 5947 5947 5946
5951 5952 5953 5954 5955 5957 5958 5959 5959 5960 5960 5960 5960 5960 5961 5962 5962 5963 5964 5965 5965 5966 5967 5967 5967 5967 5967 5967 5968 5968 5968 5968 5968 5969 5969 5969 5969 5970 5970 5970 5970 5970 5971 5971 5971 5971 5972 5972 5972 5971 5971 5971 5971 5971 5971 5970 5970 5970 5969 5969 5968 5968 5967 5967 5966 5965 5964 5963 5962 5961 5960 5959 5958 5957 5956 5955 5954 5953 5952 5951 5950 5948 5947 5946 5945
5951 5951 5952 5953 5955 5956 5957 5958 5959 5959 5960 5960 5960 5960 5960 5961 5961 5961 5962 5963 5964 5965 5966 5966 5966 5966 5966 5967 5967 5967 5967 5967 5967 5967 5967 5967 5968 5968 5968 5968 5968 5969 5969 5969 5969 5970 5970 5970 5970 5970 5970 5970 5970 5970 5969 5969 5969 5968 5968 5968 5967 5967 5966 5966 5965 5964 5963 5963 5962 5961 5960 5959 5958 5957 5956 5955 5954 5953 5951 5950 5949 5948 5946 5945 5944
5949 5950 5951 5952 5954 5956 5957 5958 5959 5959 5959 5959 5960 5960 5960 5960 5960 5960 5961 5961 5962 5963 5964 5965 5965 5965 5965 5966 5966 5966 5966 5966 5966 5966 5966 5966 5966 5967 5967 5966 5967 5967 5967 5967 5967 5968 5968 5968 5968 5968 5968 5968 5968 5968 5968 5968 5967 5967 5967 5966 5966 5965 5965 5965 5964 5963 5962 5962 5961 5960 5959 5958 5957 5956 5955 5954 5953 5952 5951 5950 5949 5947 5946 5945 5944
5946 5947 5949 5950 5952 5954 5956 5958 5959 5959 5959 5959 5959 5959 5959 5959 5960 5960 5960 5960 5960 5961 5962 5962 5963 5963 5964 5964 5964 5965 5965 5965 5965 5965 5965 5965 5965 5965 5965 5965 5965 5965 5965 5965 5965 5966 5966 5966 5966 5966 5966 5966 5966 5966 5966 5966 5966 5966 5965 5965 5964 5964 5964 5963 5963 5962 5961 5960 5960 5959 5958 5957 5956 5955 5954 5953 5951 5950 5950 5949 5948 5947 5945 5944 5943
5943 5944 5946 5947 5949 5951 5953 5955 5957 5957 5958 5958 5958 5958 5958 5958 5958 5958 5959 5959 5959 5959 5960 5960 5961 5961 5962 5962 5962 5963 5963 5963 5963 5964 5964 5964 5964 5964 5964 5964 5964 5964 5964 5964 5964 5964 5964 5964 5964 5964 5964 5964 5964 5964 5965 5965 5965 5964 5964 5964 5963 5963 5962 5962 5961 5961 5960 5959 5958 5958 5957 5956 5955 5954 5953 5952 5950 5949 5948 5948 5947 5946 5945 5943 5942
5941 5942 5943 5944 5945 5947 5949 5951 5953 5954 5955 5955 5955 5955 5956 5956 5956 5957 5957 5957 5958 5958 5958 5959 5959 5960 5960 5960 5960 5961 5961 5961 5962 5962 5962 5962 5962 5962 5962 5962 5962 5962 5962 5962 5962 5962 5962 5962 5962 5962 5962 5962 5962 5963 5963 5963 5963 5963 5963 5963 5962 5961 5961 5960 5959 5958 5959 5958 5957 5956 5955 5955 5954 5952 5951 5950 5949 5947 5946 5946 5945 5945 5944 5942 5941
5939 5940 5941 5941 5942 5943 5945 5947 5949 5951 5952 5952 5953 5953 5953 5954 5954 5955 5955 5956 5956 5956 5957 5957 5958 5958 5958 5958 5958 5959 5959 5959 5959 5959 5960 5960 5960 5960 5960 5960 5960 5960 5960 5960 5960 5960 5960 5960 5960 5960 5960 5960 5961 5961 5961 5961 5961 5962 5961 5961 5961 5960 5959 5959 5957 5956 5956 5957 5956 5955 5953 5953 5952 5951 5949 5948 5947 5946 5944 5944 5944 5943 5942 5941 5940
5937 5937 5938 5939 5940 5940 5941 5943 5946 5948 5950 5950 5950 5951 5951 5952 5952 5953 5953 5954 5954 5954 5955 5955 5956 5956 5956 5957 5957 5957 5957 5957 5957 5957 5957 5957 5957 5957 5957 5957 5957 5957 5958 5958 5958 5958 5958 5958 5958 5958 5958 5958 5958 5959 5959 5959 5959 5960 5959 5959 5959 5959 5958 5957 5956 5954 5953 5954 5955 5953 5952 5951 5951 5950 5948 5947 5946 5944 5942 5942 5942 5941 5940 5939 5938
5935 5935 5936 5937 5937 5938 5939 5941 5943 5945 5947 5948 5948 5949 5949 5950 5950 5951 5951 5952 5952 5952 5952 5953 5953 5953 5954 5955 5955 5955 5955 5955 5954 5954 5955 5955 5955 5955 5955 5955 5955 5955 5955 5955 5955 5956 5956 5956 5956 5956 5956 5956 5956 5957 5957 5957 5957 5958 5957 5957 5957 5956 5956 5956 5954 5952 5950 5950 5952 5952 5950 5949 5949 5948 5946 5945 5945 5943 5941 5940 5939 5939 5938 5937 5937
5932 5933 5934 5934 5935 5936 5937 5939 5940 5942 5943 5944 5945 5945 5946 5946 5947 5948 5949 5949 5950 5950 5950 5950 5950 5950 5951 5951 5952 5952 5952 5952 5952 5952 5952 5952 5952 5953 5953 5953 5953 5953 5953 5954 5954 5954 5954 5954 5954 5954 5954 5954 5955 5955 5955 5955 5956 5956 5955 5955 5954 5954 5954 5953 5952 5951 5949 5948 5949 5950 5948 5947 5947 5947 5945 5944 5943 5941 5939 5938 5937 5937 5936 5936 5935
5929 5930 5931 5932 5933 5934 5935 5936 5937 5939 5940 5941 5941 5941 5942 5942 5943 5944 5945 5946 5947 5947 5947 5947 5947 5947 5947 5948 5948 5949 5949 5949 5949 5949 5949 5950 5950 5950 5950 5951 5951 5951 5952 5952 5952 5952 5952 5952 5952 5952 5952 5952 5953 5953 5952 5953 5953 5953 5953 5953 5952 5951 5951 5950 5950 5949 5947 5946 5946 5948 5947 5945 5945 5945 5943 5942 5942 5940 5938 5937 5936 5935 5934 5934 5933
5926 5927 5928 5929 5931 5932 5933 5934 5934 5935 5936 5937 5938 5939 5939 5939 5941 5942 5943 5944 5945 5945 5945 5945 5945 5945 5945 5945 5946 5946 5946 5946 5947 5946 5947 5947 5947 5948 5948 5949 5949 5949 5950 5950 5950 5949 5949 5950 5950 5951 5950 5950 5951 5951 5950 5950 5951 5951 5951 5950 5950 5948 5948 5947 5947 5946 5945 5944 5944 5945 5945 5943 5942 5943 5941 5940 5939 5938 5936 5935 5934 5933 5933 5932 5931
5922 5923 5925 5926 5927 5928 5930 5931 5931 5931 5931 5932 5934 5936 5937 5938 5939 5941 5942 5943 5944 5944 5945 5944 5944 5944 5944 5944 5944 5944 5945 5945 5945 5945 5945 5945 5945 5946 5947 5947 5947 5947 5948 5948 5947 5947 5947 5948 5948 5948 5948 5948 5948 5948 5948 5948 5948 5948 5948 5948 5947 5945 5944 5945 5945 5943 5942 5942 5941 5941 5942 5942 5940 5940 5939 5937 5936 5935 5934 5933 5932 5931 5931 5930 5929
5917 5919 5920 5921 5923 5923 5925 5926 5927 5928 5928 5929 5931 5933 5935 5936 5937 5938 5938 5939 5940 5941 5942 5942 5942 5942 5942 5942 5942 5943 5943 5944 5943 5943 5943 5944 5945 5945 5946 5946 5946 5947 5947 5946 5945 5945 5945 5945 5945 5946 5946 5946 5946 5946 5946 5946 5945 5944 5944 5945 5943 5941 5941 5942 5942 5941 5940 5939 5938 5938 5939 5939 5938 5938 5937 5935 5934 5933 5931 5930 5930 5929 5928 5927 5927
5913 5914 5916 5917 5918 5919 5920 5921 5922 5923 5924 5926 5928 5930 5932 5933 5934 5934 5934 5934 5935 5936 5937 5937 5938 5938 5938 5938 5938 5938 5939 5939 5939 5939 5940 5941 5943 5944 5944 5944 5945 5946 5946 5944 5943 5943 5943 5943 5943 5944 5944 5944 5943 5943 5943 5942 5942 5941 5941 5941 5940 5938 5939 5940 5939 5939 5938 5936 5935 5935 5935 5935 5935 5934 5933 5932 5931 5930 5929 5928 5927 5926 5926 5925 5924
5910 5911 5912 5913 5914 5915 5916 5917 5918 5919 5920 5922 5925 5928 5929 5929 5929 5929 5930 5930 5931 5931 5931 5931 5932 5933 5934 5934 5934 5935 5935 5935 5934 5934 5934 5935 5937 5939 5940 5941 5943 5943 5942 5939 5939 5941 5941 5941 5942 5942 5941 5941 5940 5939 5939 5938 5938 5937 5937 5937 5936 5935 5936 5937 5936 5936 5936 5934 5931 5931 5932 5932 5931 5930 5929 5929 5929 5927 5926 5926 5925 5924 5923 5922 5922